Location: Unspecified
(41.5000°N, 0.0000°E)
Time: 04:38:53
(UTC+00:00)

Vanguard 3 - Pass Details

Date: 19 June 2019
Orbit: 508 x 3262 km, 33.3° (Epoch: 13 October)

Event Time Altitude Azimuth Distance (km) Brightness Sun altitude
Rises 13:34:51 0° 249° (WSW) 5,164 11.6 63.4°
Reaches altitude 10° 13:39:10 10° 243° (WSW) 3,685 11.1 62.7°
Maximum altitude 13:47:04 39° 179° (S) 1,452 9.3 61.5°
Drops below altitude 10° 13:51:55 10° 110° (ESE) 2,252 9.4 60.7°
Sets 13:53:58 0° 102° (ESE) 2,980 9.8 60.4°
